Showing default

SPACEMOBILE-004, 61049

Orbit data source: Space-Track

SPACEMOBILE-004, 61049 is a payload satellite owned by AST & Science (US) in LEO that was launched on Thu, 12 Sep 2024 UTC via an FALCON 9 launch vehicle from the Air Force Eastern Test Range (AFETR). Payloads include a variety of satellites, spacecraft, and rockets equipped with specific instruments for various scientific and technological missions. These include communications satellites like Starlink; space stations such as the ISS; scientific satellites like the Hubble; Earth observation satellites from companies like Planet Labs, Umbra, and HawkEye 360; GPS; miniature CubeSats for education and research; and military/defense satellites.

Loading next visibility...
SPACEMOBILE-004 details
Identifier
61049, 2024-163E
Orbit
LEO
Last TLE update7 hours ago
Origin
Flag of USAST & Science (US)
ManufacturerAST & Science
MissionOperational Commercial Communications
Bus & MotorBW3, Unknown motor
Mass1,500 kg wet, 1,500 kg dry
Launch date (UTC)
2024-09-12 (5 months ago)
Launch vehicle
FALCON 9
Launch site
Air Force Eastern Test Range (AFETR)
Object type
Payload
Rocket body
Debris
Shape & HBRBox + 1 Plate, 9 m
Radar Cross Section1.500 m², Large (>1 m²)

Expand to show TLE details & history

TLE from 7 hours ago
0 SPACEMOBILE-004
1 61049U 24163E   25045.34921916  .00007209  00000-0  35025-3 0  9993
2 61049  52.9739  31.5643 0012502  88.4462 271.7963 15.19429552 23543
Epoch: 2025-02-14T08:22Z
Definitive object data (Epoch: 2025-02-14T08:22:52.535Z)
Latitude-0.00007°
Longitude121.23309°
Altitude508.18 km
Speed7.611 km/s
True Right ascension02h 06m 15s
True Declination0° 00' 00"
Sunlit
Object was in daylight at TLE epoch
Visualization TLE readout
Latitude17.78819°
Longitude-74.03212°
Altitude504.634 km
Speed7.616 km/s
Apparent Right ascension10h 16m 58s
Apparent Declination-15° 42' 55"
Sunlit
Object is in full shadow
Visualization observer readout
Local Sidereal Time18:02:13
Azimuth274.377° WNW
Elevation-30.07°
Doppler factor1
Orbital elements
Apogee altitude516.458 km
Perigee altitude499.24 km
Semi-major axis6,885.986 km
Eccentricity0.0012502
Inclination52.9739°
RAAN31.5643°
Arg. of periapsis88.4462°
True anomaly271.6531°
Mean anomaly271.7963°
Eccentric anomaly271.7247°
Mean motion3.79834 °/min
BSTAR0.00035025
Orbital period94.78 mins
Loading maneuver chart data...
Loading historical data...
Loading historical data...
Loading historical data...
Loading historical data...
Loading historical data...
Loading historical data...
Loading historical data...

SPACEMOBILE-004 Visibility forecast

Observer location: undefined°, undefined

Span
Click to sort rows by Start time (UTC) header in descending order
Start Az.
Max El. time (UTC)
Max El. Az.
Max El.
End time (UTC)
End Az.
5 mins2025-02-15 01:57:06.110Z240.841° WSW2025-02-15 01:59:06.110Z301.571° NW43.458°2025-02-15 02:02:06.110Z45.122° ENE
5 mins2025-02-15 08:35:06.110Z304.331° NW2025-02-15 08:37:06.110Z233.458° WSW44.316°2025-02-15 08:40:06.110Z136.608° SSE
|